Location: Unspecified
(40.9833°N, 0.0000°E)
Time: 14:29:00
(UTC+00:00)

JY1SAT - Visible Passes

Search period start: 17 July 2019 00:00
Search period end: 27 July 2019 00:00
Orbit: 572 x 591 km, 97.7° (Epoch: 17 July)

Date Brightness Start Highest point End Pass type
(mag) Time Alt. Az. Time Alt. Az. Time Alt. Az.
17 Jul ? 21:18:42 29° ESE 21:20:01 37° ENE 21:23:53 10° N visible
17 Jul ? 22:55:04 17° W 22:55:29 18° W 22:58:21 10° NW visible
18 Jul ? 21:24:11 33° ESE 21:25:23 42° ENE 21:29:21 10° N visible
18 Jul ? 23:00:33 15° W 23:00:55 15° W 23:03:26 10° NW visible
19 Jul ? 21:29:41 39° ESE 21:30:44 49° ENE 21:34:48 10° N visible
19 Jul ? 23:06:03 13° W 23:06:21 13° W 23:08:27 10° WNW visible
20 Jul ? 21:35:10 45° ESE 21:36:06 57° ENE 21:40:12 10° N visible
20 Jul ? 23:11:32 12° W 23:11:47 12° W 23:13:17 10° WNW visible
21 Jul ? 21:40:39 52° SE 21:41:28 66° ENE 21:45:38 10° N visible
22 Jul ? 21:46:09 59° SE 21:46:51 76° ENE 21:51:02 10° N visible
23 Jul ? 21:51:38 66° SSE 21:52:13 88° ENE 21:56:25 10° NNW visible
24 Jul ? 21:57:07 69° SSW 21:57:35 81° WSW 22:01:47 10° NNW visible
25 Jul ? 20:27:12 10° ENE 20:28:13 11° ENE 20:29:13 10° NE visible
25 Jul ? 22:02:37 65° SW 22:02:58 70° WSW 22:07:08 10° NNW visible
26 Jul ? 20:31:48 10° E 20:33:31 12° ENE 20:35:14 10° NE visible
26 Jul ? 22:08:06 59° WSW 22:08:20 60° W 22:12:29 10° NNW visible
